• Em Portugal
  • Lista de países
  • Para 7 dias
  • Temperatura da água
  • Mapas de satélite
  • Mapa do tempo
  • Widgets de tempo
  • user-avatar
    Iniciar Sessão

    Previsão horária em Sierpnica

    Hoje, 21 Abril, Sábado

    Tempo Temperatura Precipitação Vento Pressão Humidade
    00:00 +14°C° 0 mm 2 m/s 713 mmHg 70%
    01:00 +13°C° 0 mm 2 m/s 712 mmHg 68%
    02:00 +13°C° 0 mm 2 m/s 712 mmHg 69%
    03:00 +13°C° 0 mm 2 m/s 712 mmHg 70%
    04:00 +13°C° 0 mm 2 m/s 712 mmHg 71%
    05:00 +14°C° 0 mm 2 m/s 712 mmHg 69%
    06:00 +15°C° 0 mm 2 m/s 712 mmHg 68%
    07:00 +16°C° 0 mm 3 m/s 712 mmHg 64%
    08:00 +17°C° 0 mm 3 m/s 712 mmHg 59%
    09:00 +19°C° 0 mm 3 m/s 712 mmHg 54%
    10:00 +21°C° 0 mm 3 m/s 712 mmHg 50%
    11:00 +22°C° 0 mm 3 m/s 712 mmHg 48%
    12:00 +22°C° 0 mm 3 m/s 712 mmHg 47%
    13:00 +25°C° 0 mm 3 m/s 712 mmHg 45%
    14:00 +24°C° 0,1 mm 3 m/s 712 mmHg 48%
    15:00 +24°C° 0,1 mm 3 m/s 712 mmHg 50%
    16:00 +22°C° 0,1 mm 4 m/s 711 mmHg 53%
    17:00 +20°C° 0,1 mm 3 m/s 711 mmHg 60%
    18:00 +18°C° 0,1 mm 3 m/s 711 mmHg 68%
    19:00 +16°C° 0,1 mm 2 m/s 711 mmHg 75%
    20:00 +14°C° 0 mm 2 m/s 711 mmHg 77%
    21:00 +13°C° 0 mm 2 m/s 711 mmHg 80%
    22:00 +12°C° 0 mm 2 m/s 711 mmHg 82%
    23:00 +11°C° 0 mm 1 m/s 711 mmHg 81%

    Amanhã, 22 Abril, Domingo

    Tempo Temperatura Precipitação Vento Pressão Humidade
    00:00 +10°C° 0 mm 1 m/s 711 mmHg 81%
    01:00 +9°C° 0 mm 1 m/s 711 mmHg 81%
    02:00 +9°C° 0 mm 1 m/s 711 mmHg 81%
    03:00 +8°C° 0 mm 1 m/s 711 mmHg 80%
    04:00 +8°C° 0 mm 1 m/s 711 mmHg 80%
    05:00 +9°C° 0 mm 1 m/s 711 mmHg 76%
    06:00 +10°C° 0 mm 1 m/s 711 mmHg 72%
    07:00 +11°C° 0 mm 1 m/s 711 mmHg 68%
    08:00 +13°C° 0 mm 1 m/s 711 mmHg 63%
    09:00 +15°C° 0 mm 1 m/s 712 mmHg 57%
    10:00 +18°C° 0 mm 1 m/s 712 mmHg 52%
    11:00 +19°C° 0 mm 1 m/s 712 mmHg 49%
    12:00 +20°C° 0 mm 1 m/s 711 mmHg 46%
    13:00 +21°C° 0 mm 1 m/s 711 mmHg 43%
    14:00 +20°C° 0 mm 1 m/s 711 mmHg 44%
    15:00 +19°C° 0 mm 2 m/s 711 mmHg 45%
    16:00 +19°C° 0 mm 2 m/s 710 mmHg 46%
    17:00 +17°C° 0 mm 2 m/s 710 mmHg 53%
    18:00 +15°C° 0 mm 1 m/s 709 mmHg 59%
    19:00 +13°C° 0 mm 1 m/s 709 mmHg 66%
    20:00 +13°C° 0 mm 1 m/s 709 mmHg 68%
    21:00 +12°C° 0 mm 1 m/s 709 mmHg 69%
    22:00 +10°C° 0 mm 2 m/s 709 mmHg 71%
    23:00 +10°C° 0 mm 2 m/s 709 mmHg 72%

    Depois de amanhã, 23 Abril, Segunda-feira

    Tempo Temperatura Precipitação Vento Pressão Humidade
    00:00 +10°C° 0 mm 2 m/s 709 mmHg 74%
    01:00 +10°C° 0 mm 2 m/s 709 mmHg 75%
    02:00 +10°C° 0,1 mm 2 m/s 708 mmHg 77%
    03:00 +10°C° 0,1 mm 2 m/s 708 mmHg 79%
    04:00 +10°C° 0,1 mm 2 m/s 708 mmHg 81%
    05:00 +13°C° 0 mm 2 m/s 708 mmHg 80%
    06:00 +14°C° 0 mm 2 m/s 708 mmHg 79%
    07:00 +15°C° 0 mm 2 m/s 708 mmHg 78%
    08:00 +17°C° 0 mm 3 m/s 708 mmHg 72%
    09:00 +18°C° 0 mm 4 m/s 708 mmHg 66%
    10:00 +20°C° 0 mm 5 m/s 708 mmHg 60%
    11:00 +21°C° 0,1 mm 5 m/s 708 mmHg 57%
    12:00 +21°C° 0,1 mm 5 m/s 708 mmHg 54%
    13:00 +22°C° 0,1 mm 5 m/s 708 mmHg 51%
    14:00 +20°C° 0,8 mm 5 m/s 708 mmHg 61%
    15:00 +19°C° 0,8 mm 5 m/s 708 mmHg 70%
    16:00 +16°C° 0,8 mm 5 m/s 708 mmHg 79%
    17:00 +15°C° 0,5 mm 4 m/s 708 mmHg 83%
    18:00 +14°C° 0,5 mm 4 m/s 708 mmHg 86%
    19:00 +13°C° 0,5 mm 4 m/s 708 mmHg 89%
    20:00 +12°C° 0,2 mm 3 m/s 708 mmHg 90%
    21:00 +11°C° 0,2 mm 3 m/s 709 mmHg 91%
    22:00 +11°C° 0,2 mm 3 m/s 709 mmHg 92%
    23:00 +10°C° 0 mm 3 m/s 709 mmHg 92%

    24 Abril, Terça-feira

    Tempo Temperatura Precipitação Vento Pressão Humidade
    00:00 +9°C° 0 mm 2 m/s 710 mmHg 92%
    01:00 +8°C° 0 mm 2 m/s 710 mmHg 92%
    02:00 +8°C° 0 mm 2 m/s 710 mmHg 92%
    03:00 +7°C° 0 mm 2 m/s 710 mmHg 92%
    04:00 +7°C° 0 mm 2 m/s 710 mmHg 92%
    05:00 +8°C° 0 mm 2 m/s 711 mmHg 89%
    06:00 +8°C° 0 mm 2 m/s 711 mmHg 85%
    07:00 +9°C° 0 mm 3 m/s 711 mmHg 81%
    08:00 +11°C° 0 mm 3 m/s 711 mmHg 74%
    09:00 +12°C° 0 mm 4 m/s 712 mmHg 67%
    10:00 +13°C° 0 mm 4 m/s 712 mmHg 60%
    11:00 +14°C° 0 mm 4 m/s 712 mmHg 57%
    12:00 +15°C° 0 mm 4 m/s 712 mmHg 54%
    13:00 +17°C° 0 mm 4 m/s 711 mmHg 51%
    14:00 +17°C° 0 mm 4 m/s 711 mmHg 51%
    15:00 +18°C° 0 mm 4 m/s 711 mmHg 51%
    16:00 +18°C° 0 mm 4 m/s 710 mmHg 50%
    17:00 +16°C° 0 mm 3 m/s 710 mmHg 57%
    18:00 +15°C° 0 mm 2 m/s 710 mmHg 63%
    19:00 +13°C° 0 mm 2 m/s 709 mmHg 69%
    20:00 +12°C° 0 mm 2 m/s 709 mmHg 70%
    21:00 +10°C° 0 mm 2 m/s 709 mmHg 72%
    22:00 +10°C° 0 mm 2 m/s 710 mmHg 74%
    23:00 +9°C° 0 mm 2 m/s 709 mmHg 76%

    25 Abril, Quarta-feira

    Tempo Temperatura Precipitação Vento Pressão Humidade
    00:00 +10°C° 0 mm 1 m/s 709 mmHg 78%
    01:00 +9°C° 0 mm 1 m/s 709 mmHg 80%
    02:00 +9°C° 0 mm 1 m/s 709 mmHg 81%
    03:00 +9°C° 0 mm 1 m/s 709 mmHg 82%
    04:00 +7°C° 0 mm 2 m/s 708 mmHg 84%
    05:00 +9°C° 0 mm 2 m/s 708 mmHg 80%
    06:00 +10°C° 0 mm 2 m/s 708 mmHg 75%
    07:00 +11°C° 0 mm 3 m/s 708 mmHg 71%
    08:00 +13°C° 0 mm 4 m/s 708 mmHg 65%
    09:00 +15°C° 0 mm 4 m/s 708 mmHg 59%
    10:00 +19°C° 0 mm 5 m/s 709 mmHg 53%
    11:00 +20°C° 0 mm 6 m/s 708 mmHg 51%
    12:00 +21°C° 0 mm 6 m/s 708 mmHg 50%
    13:00 +22°C° 0 mm 7 m/s 707 mmHg 48%
    14:00 +22°C° 0 mm 6 m/s 707 mmHg 48%
    15:00 +22°C° 0 mm 6 m/s 706 mmHg 49%
    16:00 +22°C° 0 mm 5 m/s 706 mmHg 50%
    17:00 +20°C° 0,6 mm 4 m/s 705 mmHg 59%
    18:00 +18°C° 0,6 mm 4 m/s 705 mmHg 68%
    19:00 +16°C° 0,6 mm 3 m/s 705 mmHg 78%
    20:00 +14°C° 1 mm 3 m/s 705 mmHg 82%
    21:00 +14°C° 1 mm 3 m/s 705 mmHg 86%
    22:00 +14°C° 1 mm 2 m/s 705 mmHg 90%
    23:00 +13°C° 0,1 mm 2 m/s 705 mmHg 91%

    26 Abril, Quinta-feira

    Tempo Temperatura Precipitação Vento Pressão Humidade
    00:00 +12°C° 0,1 mm 2 m/s 706 mmHg 92%
    01:00 +10°C° 0,1 mm 2 m/s 706 mmHg 93%
    02:00 +10°C° 0 mm 2 m/s 706 mmHg 93%
    03:00 +9°C° 0 mm 2 m/s 706 mmHg 93%
    04:00 +8°C° 0 mm 2 m/s 707 mmHg 93%
    05:00 +9°C° 0 mm 2 m/s 707 mmHg 90%
    06:00 +9°C° 0 mm 2 m/s 707 mmHg 87%
    07:00 +10°C° 0 mm 2 m/s 707 mmHg 84%
    08:00 +12°C° 0,1 mm 2 m/s 708 mmHg 80%
    09:00 +13°C° 0,1 mm 2 m/s 708 mmHg 77%
    10:00 +13°C° 0,1 mm 2 m/s 708 mmHg 73%
    11:00 +13°C° 0,3 mm 2 m/s 708 mmHg 74%
    12:00 +13°C° 0,3 mm 2 m/s 708 mmHg 76%
    13:00 +13°C° 0,3 mm 2 m/s 708 mmHg 78%
    14:00 +13°C° 0,3 mm 2 m/s 707 mmHg 78%
    15:00 +13°C° 0,3 mm 2 m/s 707 mmHg 78%
    16:00 +12°C° 0,3 mm 3 m/s 707 mmHg 78%
    17:00 +11°C° 0,1 mm 3 m/s 707 mmHg 79%
    18:00 +10°C° 0,1 mm 3 m/s 707 mmHg 79%
    19:00 +9°C° 0,1 mm 3 m/s 708 mmHg 80%
    20:00 +8°C° 0 mm 2 m/s 708 mmHg 81%
    21:00 +8°C° 0 mm 2 m/s 708 mmHg 81%
    22:00 +7°C° 0 mm 2 m/s 708 mmHg 81%
    23:00 +7°C° 0 mm 2 m/s 708 mmHg 81%
    Mostrar mais